This demonstration page uses our WeatherBlox Daily Observations layout. Learn more.

Hourly Observations for April 4, 2016

Temp ( °F °C ) Dew Point ( °F °C ) Humidity (%) Winds ( mph kmh ) Pressure ( in mb ) Visibility ( mi km ) Precip ( " mm )
12:15 am 00:15 Hazy 47 8.4 29 -1.5 50 50 N 6 9 30.06 1018 5 8.0467 0 0
12:35 am 00:35 Clear 45 7.1 29 -1.6 54 54 N 8 13 30.06 1018 7 11.26538 0 0
12:55 am 00:55 Clear 50 10.1 33 0.3 51 51 N 5 7 30.03 1017 10 16.0934 0 0
1:15 am 01:15 Clear 49 9.7 32 0 51 51 N 5 7 30.03 1017 10 16.0934 0 0
1:35 am 01:35 Clear 48 8.8 32 0 54 54 N 6 9 30.06 1018 10 16.0934 0 0
1:55 am 01:55 Clear 47 8.5 32 0.2 56 56 N 6 9 30.06 1018 10 16.0934 0 0
2:15 am 02:15 Clear 45 7 32 0 61 61 N 5 7 30.09 1019 10 16.0934 0 0
2:35 am 02:35 Clear 44 6.8 32 0 62 62 Calm 30.09 1019 10 16.0934 0 0
2:55 am 02:55 Clear 44 6.7 32 0 63 63 Calm 30.09 1019 10 16.0934 0 0
3:15 am 03:15 Clear 42 5.6 31 -0.3 66 66 Calm 30.15 1021 10 16.0934 0 0
3:35 am 03:35 Clear 42 5.5 31 -0.4 66 66 NNE 5 7 30.15 1021 10 16.0934 0 0
3:55 am 03:55 Clear 41 5.1 31 -0.5 67 67 NNE 5 7 30.15 1021 10 16.0934 0 0
4:15 am 04:15 Clear 43 6 32 -0.2 65 65 NNE 5 7 30.15 1021 10 16.0934 0 0
4:35 am 04:35 Clear 41 4.9 31 -0.6 68 68 N 6 9 30.15 1021 10 16.0934 0 0
4:55 am 04:55 Clear 42 5.3 32 -0.1 68 68 NNE 5 7 30.15 1021 10 16.0934 0 0
5:15 am 05:15 Clear 38 3.6 30 -1.3 71 71 Calm 30.21 1023 10 16.0934 0 0
5:35 am 05:35 Clear 37 3 30 -1.1 75 75 N 3 6 30.21 1023 10 16.0934 0 0
5:55 am 05:55 Clear 39 3.7 31 -0.6 74 74 Calm 30.21 1023 10 16.0934 0 0
6:15 am 06:15 Clear 38 3.4 30 -0.9 74 74 Calm 30.21 1023 10 16.0934 0 0
6:35 am 06:35 Clear 37 2.8 29 -1.4 74 74 NNE 3 6 30.21 1023 10 16.0934 0 0
6:55 am 06:55 Clear 35 1.4 29 -1.6 81 81 N 3 6 30.24 1024 10 16.0934 0 0
7:15 am 07:15 Sunny 35 1.4 29 -1.5 81 81 N 6 9 30.24 1024 10 16.0934 0 0
7:35 am 07:35 Sunny 33 0.7 28 -2.1 82 82 N 8 13 30.3 1026 10 16.0934 0 0
7:55 am 07:55 Sunny 35 1.9 30 -1.3 80 80 N 7 11 30.27 1025 10 16.0934 0 0
8:15 am 08:15 Sunny 40 4.3 31 -0.3 72 72 NNE 5 7 30.27 1025 10 16.0934 0 0
8:35 am 08:35 Sunny 44 6.4 31 -0.3 63 63 NNE 7 11 30.27 1025 10 16.0934 0 0
8:55 am 08:55 Sunny 45 7.2 31 -0.7 58 58 NE 10 17 30.27 1025 10 16.0934 0 0
9:15 am 09:15 Sunny 47 8.2 31 -0.8 53 53 ENE 14 22 30.24 1024 10 16.0934 0 0
9:35 am 09:35 Sunny 48 9.1 31 -0.8 50 50 ENE 15 24 30.24 1024 10 16.0934 0 0
9:55 am 09:55 Sunny 49 9.4 31 -0.4 51 51 ENE 13 20 30.24 1024 10 16.0934 0 0
10:15 am 10:15 Sunny 50 10 31 -0.4 49 49 E 13 20 30.27 1025 10 16.0934 0 0
10:35 am 10:35 Sunny 51 10.7 31 -0.5 46 46 E 14 22 30.27 1025 10 16.0934 0 0
10:55 am 10:55 Sunny 52 11.2 31 -0.8 44 44 E 10 17 30.27 1025 10 16.0934 0 0
11:15 am 11:15 Sunny 53 11.7 30 -1.2 41 41 E 13 20 30.24 1024 10 16.0934 0 0
11:35 am 11:35 Sunny 55 12.6 29 -1.6 38 38 ENE 12 19 30.24 1024 10 16.0934 0 0
11:55 am 11:55 Sunny 56 13.6 27 -2.9 32 32 E 9 15 30.24 1024 10 16.0934 0 0
12:15 pm 12:15 Sunny 57 13.8 27 -3 31 31 E 10 17 30.24 1024 10 16.0934 0 0
12:35 pm 12:35 Sunny 58 14.4 26 -3.5 29 29 E 15 24 30.24 1024 10 16.0934 0 0
12:55 pm 12:55 Sunny 59 14.8 26 -3.2 29 29 ESE 10 17 30.24 1024 10 16.0934 0 0
1:15 pm 13:15 Sunny 60 15.5 27 -2.7 29 29 E 12 19 30.18 1022 10 16.0934 0 0
1:35 pm 13:35 Sunny 60 15.7 27 -3 28 28 SE 7 11 30.18 1022 10 16.0934 0 0
1:55 pm 13:55 Sunny 61 16 26 -3.1 27 27 SE 8 13 30.18 1022 10 16.0934 0 0
2:15 pm 14:15 Sunny 62 16.5 28 -2.5 27 27 ESE 10 17 30.18 1022 10 16.0934 0 0
2:35 pm 14:35 Sunny 63 17.1 27 -2.8 26 26 SE 6 9 30.15 1021 10 16.0934 0 0
2:55 pm 14:55 Sunny 64 18 28 -2.3 25 25 SE 10 17 30.12 1020 10 16.0934 0 0
3:15 pm 15:15 Sunny 65 18.1 28 -2.3 25 25 SE 7 11 30.12 1020 10 16.0934 0 0
3:35 pm 15:35 Sunny 65 18.5 30 -1.3 26 26 SSE 10 17 30.12 1020 10 16.0934 0 0
3:55 pm 15:55 Sunny 65 18.5 30 -1.3 26 26 SSE 10 17 30.09 1019 10 16.0934 0 0
4:15 pm 16:15 Sunny 66 18.8 31 -0.8 27 27 SE 10 17 30.09 1019 10 16.0934 0 0
4:35 pm 16:35 Sunny 66 19.1 31 -0.8 26 26 SSE 13 20 30.06 1018 10 16.0934 0 0
4:55 pm 16:55 Sunny 66 19 30 -1 26 26 SSE 10 17 30.06 1018 10 16.0934 0 0
5:15 pm 17:15 Sunny 66 18.7 30 -1.1 26 26 SSE 8 13 30.06 1018 10 16.0934 0 0
5:35 pm 17:35 Sunny 67 19.2 31 -0.8 26 26 SSE 14 22 30.06 1018 10 16.0934 0 0
5:55 pm 17:55 Sunny 66 19 31 -0.8 26 26 SSE 9 15 30.06 1018 10 16.0934 0 0
6:15 pm 18:15 Sunny 66 18.8 30 -0.9 27 27 S 12 19 30.06 1018 10 16.0934 0 0
6:35 pm 18:35 Sunny 66 18.7 30 -0.9 27 27 SSE 10 17 30.06 1018 10 16.0934 0 0
6:55 pm 18:55 Sunny 65 18.5 31 -0.6 28 28 SSE 10 17 30.06 1018 10 16.0934 0 0
7:15 pm 19:15 Sunny 64 17.8 30 -0.9 28 28 SSE 13 20 30.06 1018 10 16.0934 0 0
7:35 pm 19:35 Sunny 63 17 30 -1.2 29 29 SSE 14 22 30.09 1019 10 16.0934 0 0
7:55 pm 19:55 Sunny 61 15.9 29 -1.4 31 31 SE 12 19 30.09 1019 10 16.0934 0 0
8:15 pm 20:15 Clear 58 14.7 29 -1.5 33 33 SE 10 17 30.09 1019 10 16.0934 0 0
8:35 pm 20:35 Clear 57 13.7 29 -1.5 35 35 SE 12 19 30.12 1020 10 16.0934 0 0
8:55 pm 20:55 Clear 55 13 30 -1.1 38 38 SE 12 19 30.12 1020 10 16.0934 0 0
9:15 pm 21:15 Clear 55 12.8 30 -1 39 39 SE 14 22 30.12 1020 10 16.0934 0 0
9:35 pm 21:35 Clear 54 12 31 -0.8 41 41 SE 14 22 30.12 1020 10 16.0934 0 0
9:55 pm 21:55 Clear 53 11.6 31 -0.7 43 43 SE 13 20 30.12 1020 10 16.0934 0 0
10:15 pm 22:15 Clear 52 11.1 31 -0.5 45 45 SE 13 20 30.12 1020 10 16.0934 0 0
10:35 pm 22:35 Clear 51 10.8 31 -0.5 46 46 SE 13 20 30.12 1020 10 16.0934 0 0
10:55 pm 22:55 Clear 51 10.5 31 -0.5 47 47 SE 14 22 30.12 1020 10 16.0934 0 0
11:15 pm 23:15 Clear 50 10.2 31 -0.7 47 47 SE 14 22 30.15 1021 10 16.0934 0 0
11:35 pm 23:35 Clear 50 9.8 31 -0.8 48 48 SE 14 22 30.15 1021 10 16.0934 0 0
11:55 pm 23:55 Clear 49 9.2 30 -0.9 50 50 SE 13 20 30.15 1021 10 16.0934 0 0

Powered by AerisWeather